Location: Hermaringen
(48.5952°N, 10.2585°E)
Time: 12:33:55
(UTC+00:00)

Explorer 7 - Pass Details

Date: 21 February 2026
Orbit: 430 x 541 km, 50.2° (Epoch: 8 March)

Event Time Altitude Azimuth Distance (km) Brightness Sun altitude
Rises 18:28:26 0° 287° (WNW) 2,514 11.8 -17.0°
Reaches altitude 10° 18:30:40 10° 279° (W) 1,655 10.6 -17.3°
Maximum altitude 18:34:08 37° 211° (SSW) 784 7.8 -17.9°
Enters shadow 18:36:00 22° 159° (SSE) 1,121 8.1 -18.2°
